TimeEST,TemperatureF,Dew PointF,Humidity,Sea Level PressureIn,VisibilityMPH,Wind Direction,Wind SpeedMPH,Gust SpeedMPH,PrecipitationIn,Events,Conditions,WindDirDegrees,DateUTC
12:53 AM,41.0,34.0,76,30.27,10.0,Calm,Calm,-,N/A,,Overcast,0,2014-02-07 05:53:00
1:53 AM,39.9,35.1,83,30.25,10.0,Calm,Calm,-,N/A,,Overcast,0,2014-02-07 06:53:00
2:53 AM,37.0,33.1,86,30.25,7.0,Calm,Calm,-,N/A,,Clear,0,2014-02-07 07:53:00
3:53 AM,37.0,33.1,86,30.26,8.0,NNE,4.6,-,N/A,,Clear,30,2014-02-07 08:53:00
4:53 AM,35.1,32.0,89,30.28,8.0,Calm,Calm,-,N/A,,Clear,0,2014-02-07 09:53:00
5:53 AM,35.1,30.9,85,30.30,8.0,NNE,3.5,-,N/A,,Clear,30,2014-02-07 10:53:00
6:53 AM,34.0,30.9,89,30.31,6.0,NE,3.5,-,N/A,,Clear,40,2014-02-07 11:53:00
7:53 AM,35.1,30.9,85,30.31,5.0,NE,4.6,-,N/A,,Clear,50,2014-02-07 12:53:00
8:53 AM,39.0,33.1,79,30.32,7.0,East,4.6,-,N/A,,Clear,80,2014-02-07 13:53:00
9:53 AM,43.0,33.1,68,30.35,10.0,ENE,6.9,-,N/A,,Clear,60,2014-02-07 14:53:00
10:53 AM,46.0,32.0,58,30.35,10.0,Variable,5.8,-,N/A,,Clear,0,2014-02-07 15:53:00
11:53 AM,48.0,30.0,50,30.33,10.0,NE,4.6,-,N/A,,Clear,50,2014-02-07 16:53:00
12:53 PM,48.9,30.0,48,30.31,10.0,Calm,Calm,-,N/A,,Clear,0,2014-02-07 17:53:00
1:53 PM,51.1,30.0,44,30.27,10.0,East,3.5,-,N/A,,Clear,100,2014-02-07 18:53:00
2:53 PM,52.0,30.0,43,30.26,10.0,East,4.6,-,N/A,,Clear,90,2014-02-07 19:53:00
3:53 PM,53.1,30.9,43,30.25,10.0,North,-9999.0,-,N/A,,Clear,0,2014-02-07 20:53:00
4:53 PM,52.0,30.9,45,30.26,10.0,Calm,Calm,-,N/A,,Clear,0,2014-02-07 21:53:00
5:53 PM,48.9,32.0,52,30.27,10.0,SE,3.5,-,N/A,,Clear,130,2014-02-07 22:53:00
6:53 PM,45.0,34.0,65,30.27,10.0,East,3.5,-,N/A,,Clear,100,2014-02-07 23:53:00
7:53 PM,44.1,34.0,68,30.27,10.0,East,3.5,-,N/A,,Clear,90,2014-02-08 00:53:00
8:53 PM,43.0,33.1,68,30.27,10.0,Calm,Calm,-,N/A,,Clear,0,2014-02-08 01:53:00
9:53 PM,39.9,34.0,79,30.27,9.0,Calm,Calm,-,N/A,,Clear,0,2014-02-08 02:53:00
10:53 PM,39.9,35.1,83,30.27,10.0,Calm,Calm,-,N/A,,Clear,0,2014-02-08 03:53:00
11:53 PM,37.0,34.0,89,30.26,9.0,Calm,Calm,-,N/A,,Clear,0,2014-02-08 04:53:00